[Iaude] MPEC L107: 2024 LV2 [a=2.15,e=0.82,i=3.3,H=23.3]
    mpec at cfa.harvard.edu 
    mpec at cfa.harvard.edu
       
    Mon Jun 10 13:05:32 EDT 2024
    
    
  
M.P.E.C. 2024-L107                                Issued 2024 June 10, 17:03 UT
     The Minor Planet Electronic Circulars contain information on unusual
         minor planets, routine data on comets and natural satellites,
         and occasional editorial announcements.  They are published
    on behalf of Division F of the International Astronomical Union by the
          Minor Planet Center, Smithsonian Astrophysical Observatory,
                          Cambridge, MA 02138, U.S.A.
			  
             Prepared using the Tamkin Foundation Computer Network
                              MPC at CFA.HARVARD.EDU
            URL https://www.minorplanetcenter.net/    ISSN 1523-6714
                                    2024 LV2                                    
Observations:
     K24L02V*KC2024 06 08.23989 20 19 21.89 -37 40 58.7          18.9 rqEL107X74
     K24L02V KC2024 06 08.24507 20 19 33.08 -37 41 26.0          18.8 rqEL107X74
     K24L02V KC2024 06 08.25007 20 19 43.74 -37 41 51.9          18.9 rqEL107X74
     K24L02V KC2024 06 08.35737 20 23 40.62 -37 50 49.1          18.4 rqEL107X74
     K24L02V KC2024 06 08.36027 20 23 47.23 -37 51 03.3          18.6 rqEL107X74
     K24L02V KC2024 06 08.36318 20 23 53.84 -37 51 17.2          18.8 rqEL107X74
     K24L02V KC2024 06 08.45335220 27 44.246-37 57 16.81         18.7 GVEL107474
     K24L02V KC2024 06 08.45490520 27 47.981-37 57 25.52         19.2 GVEL107474
     K24L02V KC2024 06 08.45723420 27 53.647-37 57 37.80         19.4 GVEL107474
     K24L02V KC2024 06 08.45878720 27 57.480-37 57 46.30         18.4 GVEL107474
     K24L02V KC2024 06 08.46033920 28 01.250-37 57 54.32         18.9 GVEL107474
     K24L02V 0C2024 06 08.61610720 34 27.527-38 13 44.53         18.95GVEL107T12
     K24L02V 0C2024 06 08.61641520 34 28.321-38 13 45.97         19.11GVEL107T12
     K24L02V 0C2024 06 08.61674020 34 29.160-38 13 47.48         18.84GVEL107T12
     K24L02V 0C2024 06 08.61766420 34 31.551-38 13 51.78         19.18GVEL107T12
     K24L02V 0C2024 06 08.61799220 34 32.401-38 13 53.39         18.92GVEL107T12
     K24L02V KC2024 06 08.63692 20 35 31.88 -38 13 19.3          18.7 VqEL107E23
     K24L02V KC2024 06 08.66469 20 36 45.35 -38 15 37.2          19.0 VqEL107E23
     K24L02V KC2024 06 10.26190 22 29 18.45 -38 06 25.3          18.0 rqEL107X74
     K24L02V KC2024 06 10.26472 22 29 35.26 -38 05 54.2          18.7 rqEL107X74
     K24L02V KC2024 06 10.26748 22 29 51.84 -38 05 23.2          17.9 rqEL107X74
     K24L02V KC2024 06 10.27541 22 30 39.22 -38 03 53.0          18.4 rqEL107X74
     K24L02V KC2024 06 10.27827 22 30 56.34 -38 03 19.7          18.3 rqEL107X74
     K24L02V KC2024 06 10.28108 22 31 13.17 -38 02 47.5          18.0 rqEL107X74
Observer details:
474 Mount John Observatory, Lake Tekapo.  Observers A. C. Gilmore, P. M.
    Kilmartin.  Measurer P. M. Kilmartin.  1.0-m f/7.7 Reflector + CCD.
E23 Arcadia.  Observer A. Hidas.  0.35-m f/1.9 reflector + CCD.
T12 University of Hawaii 88-inch telescope, Maunakea.  Observer D. J. Tholen.
    2.24-m f/10.1 reflector + 2112 x 2112 pixels STA1600 10k CCD.
X74 Observatorio Campo dos Amarais.  Observer L. S. Amaral.  0.31-m f/3.4
    Newtonian + CCD.
Orbital elements:
2024 LV2                                                 Earth MOID = 0.0160 AU
Epoch 2024 Mar. 31.0 TT = JDT 2460400.5                 Veres                   
M 323.30860              (2000.0)            P               Q                  
n   0.31332357     Peri.   95.28460     +0.97126408     -0.23126391             
a   2.1468779      Node   278.09557     +0.18960714     +0.89467841             
e   0.8172307      Incl.    3.25658     +0.14385835     +0.38218784             
P   3.15           H   23.38          G   0.15           U   8                  
Residuals in seconds of arc
240608 X74  0.0   0.3+    240608 474  0.6-  0.0     240608 E23  0.3+  0.3+
240608 X74  1.1+  0.0     240608 474  0.1-  0.2-    240608 E23  0.2+  0.2+
240608 X74  0.2+  0.1+    240608 474  0.4-  0.1+    240610 X74  0.1-  0.6+
240608 X74  0.2-  0.0     240608 T12  0.0   0.0     240610 X74  0.3-  0.1+
240608 X74  0.0   0.2-    240608 T12  0.0   0.0     240610 X74  0.9+  0.1+
240608 X74  0.3-  0.1-    240608 T12  0.0   0.0     240610 X74  0.1+  0.2-
240608 474  0.2+  0.2+    240608 T12  0.0   0.0     240610 X74  0.1-  0.0
240608 474  0.4-  0.2-    240608 T12  0.0   0.0     240610 X74  0.5-  0.5-
Ephemeris:
2024 LV2                 a,e,i = 2.15, 0.82, 3                   q = 0.3924
Date    TT    R. A. (2000) Decl.     Delta      r    Elong.  Phase     V
2024 05 11    18 09 18.3 -28 15 54   0.5418  1.4592   138.2    27.5    24.1
...
2024 05 26    18 29 29.1 -29 55 38   0.2767  1.2560   147.9    25.4    22.3
...
2024 06 03    18 57 30.7 -32 32 15   0.1443  1.1403   148.9    27.3    20.7
...
2024 06 09    20 53 15.3 -38 39 43   0.05277 1.0500   130.2    47.6    18.9
2024 06 10    22 04 03.6 -38 43 18   0.04086 1.0346   117.3    60.7    18.7
2024 06 11    23 52 18.9 -33 24 57   0.03295 1.0192    95.7    82.4    18.9
...
2024 06 17    04 55 27.5 +16 25 07   0.09381 0.9248    13.0   165.6    31.6
...
2024 06 25    05 36 18.8 +22 55 55   0.2254  0.7946     9.1   168.4
...
2024 07 10    05 59 37.2 +24 59 41   0.5176  0.5485    18.1   144.9    28.2
M. P. C. Staff               (C) Copyright 2024 MPC           M.P.E.C. 2024-L107
    
    
More information about the Iaude
mailing list